map of AER home
Great Circle Mapper logo
AER - Airport
Location
City:  Sochi, Krasnodar, Russian Federation (Russia)
ICAO / IATA:URSS / AER

Details
Type:Airport (Aerodrome, Airfield)
Use:Public/Civil
Latitude:4327'00"N (43.449928)
Longitude:3957'24"E (39.956589)
Datum:WGS 1984
Elevation:89 ft (27 m)
Runways:2
Longest:9482 × 164 ft (2890 × 50 m), paved

Time
Time Zone:UTC+3 (DST+4)

Weather
METAR:URSS 240800Z 28005MPS 9999 SKC 28/21 Q1005 NOSIG RMK R02/27003MPS QFE753 06000070 02000070
TAF:URSS 240434Z 2406/2506 29006G11MPS 9999 FEW030 530002 T32/2411Z
TEMPO 2406/2409 24005G10MPS
BECMG 2417/2418 05005MPS SKC

Related Locations
Nearby:
Farthest:NTAV: 11014 mi / 17726 km
Raivavae, Tubuai Islands, Austral Islands, PF

Find:

   beyond  
but within

Other Information
Maps:
NOTAMs:
Links:
Sources:

  
flag of Russian Federation (Russia)   

Sectional Chart

Flight Planning
at skyvector.com

Satellite Image

Google Maps Satellite View

 

Copyright © 2004-2014 Karl L. Swartz. All rights reserved.
The Great Circle Mapper name and logo are trademarks of the Great Circle Mapper.
All other trademarks mentioned herein belong to their respective owners.
Please see credits for attibutions and further copyright information.

  Follow gcmap on Facebook Follow gcmap on Twitter

hCard Microformat

Geo Microformat